Location: Unspecified
(51.5147°N, 7.4673°E)
Time: 03:04:38
(UTC+01:00)

Explorer 7 - Pass Details

Date: 24 February 2026
Orbit: 430 x 541 km, 50.2° (Epoch: 12 March)

Event Time Altitude Azimuth Distance (km) Brightness Sun altitude
Rises 13:17:09 0° 219° (SW) 2,393 11.0 28.7°
Reaches altitude 10° 13:19:28 10° 205° (SSW) 1,537 10.6 28.6°
Maximum altitude 13:22:20 25° 149° (SSE) 943 9.0 28.6°
Drops below altitude 10° 13:25:16 10° 93° (E) 1,576 9.2 28.5°
Sets 13:27:41 0° 80° (E) 2,471 9.9 28.4°
